Погода в Шибертуй

Россия / Республика Бурятия     50°47′42″N   107°52′03″E
темп.,
°C
ветер,
м/с
пор.,
м/с
влажн.,
%
обл.,
%
осадки,
мм/ч
давл.,
гПа
погр.,
м
29 ноября, пн
пн2923:00−14всв0090100 0.0 103418
02:00−14сз1193100 0.0 103410
05:00−16зсз119695 0.0 103510
08:00−17з119681 0.0 103610
11:00−11зюз248899 0.1 1035201
14:00−9зюз357787 0.1 1033411
17:00−12зюз239376 0.0 103535
20:00−12зюз2294100 0.0 103548
30 ноября, вт
вт3023:00−12з2393100 0.1 103570
02:00−14з229586 0.1 103527
05:00−16з229618 0.0 103517
08:00−15з229499 0.0 103525
11:00−10зюз237651 0.0 1033136
14:00−7зюз236966 0.0 1030278
17:00−13з11905 0.0 10329
20:00−15зсз119235 0.0 10339
1 декабря, ср
ср123:00−16зсз11935 0.0 10339
02:00−16зсз119515 0.0 10329
05:00−16з119353 0.0 10319
08:00−17зсз11935 0.0 10319
11:00−10юз22755 0.0 1028105
14:00−7зюз24695 0.0 1024254
17:00−13з22905 0.0 102410
20:00−11зюз2288100 0.0 102533
2 декабря, чт
чт223:00−8з41277100 0.0 1024655
02:00−7з51692100 0.4 10241161
05:00−7з41193100 1.1 1024844
08:00−8з3994100 2.2 1026714
11:00−7з4108997 0.8 1026770
14:00−5з51278100 1.0 10241175
17:00−8з398298 0.0 1026363
20:00−12з2293100 0.0 102726
3 декабря, пт
пт323:00−10з3489100 0.0 102777
02:00−11зюз2392100 0.0 102740
05:00−11з229181 0.0 102834
08:00−14з229199 0.0 102916
11:00−8зюз2477100 0.0 1028107
14:00−5зюз23716 0.0 1026150
17:00−11з21895 0.0 102810
20:00−13сз11884 0.0 10299